TIANWANG 1B (TW-1B)
1 40927U 15051C   19134.37605733  .00015011  00000-0  23763-3 0  9998
2 40927  97.1419 180.0423 0009535 144.5500 272.1560 15.53473337204532
TIANWANG 1A (TW-1A)
1 40928U 15051D   19134.34979346  .00004535  00000-0  11342-3 0  9999
2 40928  97.1488 166.4361 0010566 193.4553 223.3990 15.40565385203732
LAPAN A2
1 40931U 15052B   19134.09146138  .00000720  00000-0  11102-4 0  9998
2 40931   5.9987 310.5150 0013917  12.7821 347.2668 14.76606761195997
LQSAT
1 40958U 15057A   19133.76678172 +.00000017 +00000-0 +10365-4 0  9992
2 40958 097.9005 203.9286 0018087 001.4260 358.6997 14.73076897193524
CHUBUSAT 2
1 41338U 16012B   19134.09380595  .00000377  00000-0  22658-4 0  9990
2 41338  31.0041  10.9956 0013655 111.1214 249.0882 15.00138258177563
CHUBUSAT 3
1 41339U 16012C   19134.06747049  .00000354  00000-0  20784-4 0  9992
2 41339  31.0109   9.3044 0013446 117.5436 242.6569 15.00314703177554
OUFTI-1
1 41458U 16025C   19133.90407967 +.00002727 +00000-0 +14105-3 0  9997
2 41458 098.1017 218.9334 0168358 117.2466 244.6023 15.05707339167182
E-STAR-2
1 41459U 16025D   19134.31092213  .00004056  00000-0  20928-3 0  9995
2 41459  98.0999 219.0424 0168981 117.1782 244.6781 15.05360620167229
AAUSAT 4
1 41460U 16025E   19134.19754415  .00003989  00000-0  20198-3 0  9995
2 41460  98.0950 220.0765 0159270 110.5489 251.3047 15.07193011167321
NUSAT 1
1 41557U 16033B   19134.26871679  .00001731  00000-0  67665-4 0  9995
2 41557  97.4172 221.9774 0015413  66.5615 293.7243 15.27124544164689
BEESAT 4
1 41619U 16040W   19134.16912354  .00001674  00000-0  74003-4 0  9997
2 41619  97.3701 197.0506 0012486 142.0836 218.1282 15.23025249148452
PRATHAM
1 41783U 16059A   19134.17142906  .00000062  00000-0  21162-4 0  9996
2 41783  98.0703 194.5318 0034669 134.2713 226.1343 14.62989518140359
ALSAT 1N
1 41789U 16059G   19134.39537341 -.00000188  00000-0 -26502-4 0  9991
2 41789  98.0722 196.6691 0029803 124.2829 236.1262 14.64236022140486
NAYIF 1
1 42017U 17008BX  19133.88231582 +.00001752 +00000-0 +72214-4 0  9999
2 42017 097.4053 201.3422 0004682 304.1219 055.9574 15.25419907124463
MAX VALIER SAT
1 42778U 17036P   19134.22302052  .00001329  00000-0  61244-4 0  9995
2 42778  97.3573 192.6652 0012089 357.6295   2.4882 15.21947031104846
